Lapse_Rate
6.8 7.1 7.0 6.9 6.7 6.4 6.6 6.8 7.9 8.0 7.8 7.6 7.5 7.2 7.1 6.9 6.7 6.6 6.4 6.7 6.8 6.5 6.3 6.2 6.4 6.5 6.6 6.6 6.5 6.5 6.5 6.5 6.5 6.5 6.5 6.6 6.7 6.7 6.7 6.7 6.7 6.7 6.6 6.6 6.5 6.5 6.4 6.3 6.3
6.8 6.6 6.7 6.8 6.2 6.4 6.7 7.3 7.9 8.0 7.7 7.6 7.5 7.5 7.1 6.9 6.8 6.6 6.5 7.0 6.7 6.7 6.5 6.3 6.4 6.5 6.5 6.6 6.6 6.5 6.5 6.5 6.5 6.5 6.6 6.7 6.8 6.8 6.8 6.8 6.8 6.7 6.7 6.7 6.7 6.7 6.6 6.5 6.4
6.7 6.7 6.4 6.2 6.1 6.1 6.8 7.8 8.0 8.1 8.0 7.8 7.8 7.6 6.9 7.4 7.2 6.8 6.9 7.0 6.9 7.0 6.6 6.4 6.4 6.5 6.6 6.6 6.6 6.5 6.5 6.6 6.5 6.6 6.6 6.6 6.8 6.8 6.9 6.8 6.8 6.8 6.8 6.8 6.8 6.8 6.8 6.7 6.6
6.3 6.3 6.2 5.8 5.8 6.4 7.0 7.6 8.4 8.5 7.7 7.9 7.8 7.5 7.5 7.5 7.4 7.1 7.1 7.0 7.2 7.1 6.7 6.5 6.4 6.5 6.5 6.6 6.6 6.6 6.5 6.6 6.6 6.6 6.6 6.7 6.7 6.8 6.9 6.9 6.9 6.9 6.9 6.9 6.9 6.9 6.9 6.9 6.8
5.8 5.9 5.9 5.4 5.8 6.3 6.9 7.6 8.6 8.3 7.9 7.9 7.9 7.3 7.4 7.6 7.7 7.4 7.3 7.2 7.3 7.1 6.9 6.7 6.5 6.5 6.5 6.5 6.6 6.6 6.5 6.5 6.6 6.6 6.6 6.7 6.8 6.9 7.0 6.9 7.0 7.0 7.0 6.9 7.0 7.0 7.0 7.0 6.9
5.4 5.5 5.1 5.2 5.7 6.2 6.9 7.5 7.6 8.3 7.9 7.4 7.6 7.1 7.1 7.5 7.6 7.5 7.5 7.3 7.4 7.2 7.0 6.8 6.7 6.5 6.5 6.6 6.6 6.6 6.6 6.6 6.5 6.6 6.7 6.7 6.8 6.9 6.9 6.9 7.0 7.0 6.9 6.9 6.9 6.9 6.9 6.9 6.8
5.0 4.8 4.9 5.1 5.4 6.2 6.6 7.3 7.6 8.1 7.9 7.5 7.4 7.4 7.1 7.8 7.6 7.6 7.5 7.4 7.4 7.4 7.1 7.0 6.8 6.7 6.6 6.7 6.6 6.7 6.7 6.6 6.6 6.7 6.7 6.8 6.8 6.9 7.0 7.0 7.0 7.0 6.9 6.9 6.9 6.9 6.9 6.9 6.8
4.2 4.0 4.2 4.4 4.7 5.3 6.7 7.1 7.6 7.8 7.6 8.0 7.6 7.3 7.1 7.8 7.7 7.6 7.6 7.5 7.4 7.5 7.3 7.2 7.0 6.8 6.7 6.6 6.7 6.7 6.7 6.7 6.7 6.7 6.8 6.8 6.9 6.9 7.0 7.1 7.0 7.0 7.0 6.9 6.9 6.9 6.8 6.7 6.7
3.8 3.6 3.6 4.0 4.7 5.1 6.5 7.1 7.1 7.4 7.1 7.7 7.4 7.0 7.0 7.6 7.6 7.6 7.6 7.5 7.5 7.5 7.4 7.2 7.1 7.0 6.7 6.7 6.7 6.8 6.7 6.7 6.9 6.9 6.9 6.9 6.9 7.0 7.0 7.1 7.0 7.0 7.0 6.9 6.9 6.8 6.7 6.7 6.6
3.5 3.3 3.5 4.4 4.9 5.2 5.6 6.8 7.1 6.7 6.6 7.2 6.8 6.6 7.0 7.5 7.7 7.8 7.8 7.7 7.6 7.5 7.4 7.2 7.1 7.1 6.7 6.7 6.8 6.7 6.7 6.7 6.7 6.9 7.0 7.0 7.0 7.0 7.1 7.1 7.1 7.0 7.0 6.9 6.8 6.8 6.7 6.6 6.5
3.6 3.2 4.3 4.6 5.1 4.7 4.9 5.9 6.3 5.8 6.0 6.8 6.7 6.5 6.6 7.4 7.5 7.7 7.9 7.7 7.5 7.5 7.3 7.2 7.1 7.0 6.9 6.7 6.9 6.8 6.7 6.7 6.6 6.8 6.9 7.0 7.0 7.0 7.0 7.0 7.0 7.0 6.9 6.8 6.7 6.7 6.6 6.5 6.4
4.2 4.7 4.5 4.7 5.3 4.3 4.4 5.5 5.8 5.3 5.7 6.7 6.5 5.7 6.1 7.2 7.3 7.8 7.8 7.8 7.5 7.4 7.3 7.1 7.1 6.9 6.9 6.7 6.9 6.8 6.7 6.7 6.6 6.7 6.9 6.9 6.9 6.9 7.0 7.0 7.0 7.0 7.0 6.9 6.8 6.7 6.6 6.5 6.4
5.7 5.7 5.6 5.8 5.6 5.1 5.0 6.4 6.3 5.8 6.5 7.0 6.1 5.7 6.2 6.9 7.2 7.4 7.5 7.5 7.4 7.4 7.3 7.2 7.1 7.0 6.8 6.7 6.9 6.9 6.7 6.7 6.7 6.7 6.8 6.9 6.9 6.9 6.9 7.0 7.0 6.9 6.9 6.8 6.7 6.6 6.5 6.4 6.3
6.1 5.9 6.0 5.9 5.8 5.6 5.4 6.5 6.8 6.4 6.6 7.3 7.0 6.8 6.0 6.7 7.2 7.4 7.4 7.5 7.4 7.4 7.2 7.1 7.0 7.1 6.9 6.8 6.9 6.9 6.8 6.7 6.7 6.8 6.8 6.8 6.8 6.9 6.9 7.0 7.0 7.0 6.9 6.8 6.6 6.5 6.4 6.3 6.2
5.8 5.9 5.9 5.9 5.9 6.0 6.0 5.9 6.5 6.9 7.5 7.0 6.8 6.6 6.2 6.3 7.2 7.3 7.4 7.5 7.5 7.3 7.2 7.1 6.9 7.0 7.0 6.8 7.0 6.9 6.8 6.7 6.7 6.7 6.7 6.8 6.8 6.8 6.9 6.9 6.9 6.9 6.8 6.7 6.5 6.4 6.3 6.3 6.3
6.0 5.9 6.1 7.0 6.4 6.3 6.2 6.1 6.6 6.8 7.3 7.2 6.9 6.2 6.2 6.4 6.7 7.3 7.3 7.3 7.5 7.3 7.2 7.1 7.0 6.8 7.0 6.7 6.7 6.7 6.7 6.7 6.7 6.7 6.8 6.8 6.8 6.8 6.8 6.8 6.8 6.7 6.7 6.6 6.4 6.3 6.2 6.1 6.2
6.2 6.1 6.6 6.5 6.3 6.4 6.5 6.1 6.5 7.1 7.2 7.2 7.1 6.6 6.7 7.0 6.6 7.1 7.5 7.3 7.5 7.3 7.2 7.1 7.0 6.9 6.9 6.7 6.6 6.6 6.7 6.7 6.8 6.8 6.7 6.7 6.7 6.8 6.8 6.7 6.7 6.7 6.6 6.4 6.3 6.2 6.0 6.1 6.0
6.2 6.0 6.2 6.3 6.7 6.4 6.3 6.3 6.5 7.1 7.3 7.5 7.3 6.7 6.9 6.4 6.8 6.8 7.5 7.4 7.4 7.4 7.2 7.1 7.0 6.9 6.9 6.7 6.6 6.6 6.7 6.8 6.8 6.8 6.7 6.6 6.6 6.7 6.7 6.7 6.7 6.7 6.5 6.3 6.1 6.0 6.0 5.9 5.8
6.3 6.3 6.3 6.5 7.0 6.5 6.7 6.4 6.6 7.0 7.0 7.4 7.4 6.9 6.7 6.6 6.7 6.9 7.4 7.5 7.4 7.4 7.4 7.1 7.1 7.0 7.0 6.9 6.8 6.6 6.6 6.7 6.8 6.8 6.7 6.7 6.7 6.6 6.7 6.7 6.7 6.6 6.3 6.2 6.0 5.9 5.8 5.8 5.6
6.3 6.2 6.3 6.3 7.0 6.7 6.7 6.5 6.9 7.0 7.2 7.2 7.4 7.2 7.0 7.2 6.9 7.0 7.3 7.5 7.1 7.7 7.6 7.4 7.1 7.1 6.9 6.7 6.8 6.6 6.6 6.7 6.8 6.8 6.8 6.6 6.7 6.6 6.7 6.7 6.6 6.4 6.3 6.0 5.9 5.7 5.7 5.5 5.4
6.3 6.4 6.8 6.7 7.0 7.0 6.8 6.6 7.5 8.0 7.7 7.3 7.2 7.2 7.4 7.5 6.8 6.6 7.0 7.3 7.3 7.7 7.6 7.3 7.3 7.1 6.9 6.8 6.8 6.6 6.6 6.8 6.8 6.8 6.7 6.7 6.7 6.6 6.7 6.7 6.5 6.3 6.2 5.9 5.7 5.6 5.4 5.3 5.3
6.2 6.6 6.6 6.8 6.9 6.8 7.4 7.0 7.8 8.0 8.1 7.6 7.3 7.2 7.5 7.3 6.7 6.6 6.9 7.1 7.4 7.5 7.8 7.4 7.1 6.8 6.8 7.1 6.8 6.7 6.8 6.9 6.9 6.8 6.7 6.5 6.7 6.7 6.8 6.7 6.4 6.2 5.9 5.7 5.6 5.4 5.3 5.3 5.2
6.3 6.5 6.5 6.8 6.8 6.7 7.2 6.6 7.4 8.3 8.2 8.0 7.4 7.2 7.4 7.4 7.0 6.4 6.9 7.2 7.3 7.7 7.7 7.5 7.3 6.7 6.7 6.8 6.9 6.8 6.8 6.8 6.7 6.6 6.5 6.5 6.7 6.7 6.7 6.5 6.2 6.0 5.8 5.6 5.4 5.3 5.2 5.1 4.9
6.3 6.3 6.5 6.5 6.8 6.8 7.6 7.1 7.6 8.3 8.4 8.3 8.0 7.9 7.5 7.6 7.0 6.5 7.5 7.3 7.2 7.5 7.5 7.3 7.4 7.1 6.7 6.7 6.6 6.7 6.8 6.7 6.5 6.5 6.4 6.4 6.7 6.6 6.5 6.2 6.0 5.8 5.6 5.4 5.3 5.2 5.1 4.8 4.7
6.2 5.9 6.7 6.5 6.4 6.7 7.9 7.4 7.7 8.5 8.0 7.6 7.7 7.8 7.5 7.2 7.0 6.8 7.4 7.5 7.3 7.5 7.3 7.3 7.3 6.9 6.7 6.0 6.2 6.4 6.4 6.3 6.5 6.4 6.4 6.5 6.9 6.4 6.1 6.0 5.8 5.6 5.5 5.2 5.2 5.0 4.8 4.6 4.4
6.1 6.0 6.4 6.9 6.7 6.8 7.6 7.7 8.2 8.3 8.2 8.2 8.0 7.8 7.6 7.3 7.1 7.1 7.6 7.4 7.4 7.5 7.3 7.3 7.3 7.1 6.8 6.5 6.5 6.5 6.2 6.5 6.7 6.6 6.6 6.6 6.5 6.1 6.0 5.7 5.6 5.4 5.2 5.1 5.0 4.8 4.6 4.5 4.3
6.3 6.2 6.7 6.7 7.4 7.1 8.0 8.1 8.1 8.0 8.0 8.1 7.9 7.5 7.5 7.4 7.4 7.2 7.0 7.1 7.5 7.4 7.2 7.4 7.4 7.2 6.5 6.8 6.9 6.6 6.7 6.7 6.6 6.6 6.5 6.5 6.2 6.0 5.7 5.5 5.4 5.2 5.1 4.9 4.8 4.6 4.5 4.4 4.3
6.5 6.6 6.8 6.9 6.7 7.1 8.1 8.4 7.4 7.8 7.7 7.9 8.0 7.9 7.1 7.3 7.4 7.1 7.2 7.2 7.1 7.2 7.3 7.4 7.3 7.1 7.1 7.0 6.8 6.8 6.6 6.7 6.5 6.6 6.5 6.1 6.0 5.7 5.5 5.3 5.1 5.0 4.9 4.8 4.7 4.5 4.4 4.4 4.4
6.5 6.6 6.6 7.1 7.5 6.9 7.0 7.5 7.9 7.6 7.7 7.7 7.7 7.9 7.5 7.6 7.5 7.5 7.2 7.2 7.1 7.5 7.4 7.5 7.4 7.4 7.2 7.0 6.8 6.7 6.7 6.6 6.6 6.6 6.1 5.9 5.7 5.4 5.3 5.1 5.1 5.0 4.9 4.7 4.5 4.5 4.5 4.5 4.4
7.1 6.9 7.0 7.0 6.8 7.1 6.9 7.2 7.5 7.5 7.3 7.2 7.7 7.7 7.5 7.6 7.4 7.5 7.5 7.7 7.9 7.6 7.5 7.4 6.9 7.0 7.0 7.0 6.9 6.7 6.7 6.6 6.3 6.1 5.9 5.7 5.4 5.3 5.1 5.1 5.0 4.9 4.7 4.7 4.7 4.7 4.6 4.5 4.3
Wind_Speed
20 18 7 3 1 4 9 10 10 1 3 3 4 6 4 7 3 5 6 16 19 17 20 20 21 21 17 16 15 14 14 13 13 13 13 13 13 13 13 13 13 13 13 13 13 13 13 12 11
15 13 3 3 4 8 10 13 16 5 6 7 6 6 2 5 7 7 4 20 18 18 19 18 23 18 17 16 15 14 14 14 13 13 13 13 13 13 13 13 14 14 13 14 14 13 13 12 11
13 10 2 4 6 13 12 14 10 7 10 6 4 3 4 5 11 9 10 20 19 15 20 18 21 18 17 17 17 15 14 14 13 13 13 13 13 13 13 13 13 13 13 13 12 12 12 12 12
4 1 4 5 14 16 16 12 16 7 5 8 6 5 5 5 13 9 17 17 16 15 20 21 19 19 17 17 17 16 15 14 14 13 13 13 13 13 13 12 12 13 12 12 12 12 12 12 12
3 4 5 8 16 16 12 21 21 6 9 6 5 7 5 7 11 17 16 15 16 15 18 19 19 18 18 17 16 16 16 15 14 14 13 13 12 12 12 12 12 11 11 11 11 11 11 11 11
4 3 6 13 16 14 18 18 13 7 8 9 7 6 4 10 11 13 14 14 15 16 18 18 18 18 17 16 16 16 16 16 14 13 13 12 12 12 12 12 11 11 11 11 11 11 10 10 11
4 5 11 14 14 13 13 17 18 9 8 6 8 7 6 11 12 10 12 13 14 16 16 16 17 17 17 16 16 15 15 15 13 12 12 12 11 11 12 11 11 11 11 10 11 10 10 9 9
4 5 10 11 11 16 18 11 17 10 7 7 10 7 7 11 17 9 7 9 14 14 13 13 16 16 16 15 15 15 14 14 13 12 11 11 11 10 9 10 10 10 10 10 10 9 7 5 5
7 4 6 10 13 13 14 17 12 5 2 5 2 6 9 21 17 10 7 6 10 11 12 13 13 16 17 16 16 14 15 13 12 10 10 12 10 12 10 8 7 7 7 7 7 6 7 6 4
5 5 7 11 13 9 12 15 11 5 7 5 6 12 18 17 16 15 13 11 10 10 11 10 7 11 17 14 17 17 15 15 12 12 11 6 12 9 9 7 5 3 1 1 3 4 7 10 7
5 12 14 19 17 8 10 13 10 7 6 6 5 16 18 14 14 15 13 12 11 11 6 8 7 13 13 11 13 15 15 12 9 9 6 13 9 7 7 5 3 2 4 3 9 8 7 6 7
12 14 15 15 14 10 8 12 13 8 9 8 9 5 16 14 13 15 15 13 14 14 8 8 7 7 10 11 9 11 10 10 8 6 9 8 6 4 5 5 3 7 7 8 7 8 10 10 10
14 11 12 15 9 8 12 14 12 13 15 14 7 4 12 11 11 12 13 14 14 13 8 8 8 6 8 6 6 8 8 9 11 8 5 10 7 2 4 4 6 6 8 8 7 8 8 8 7
11 14 13 10 12 9 12 15 11 10 10 15 10 6 8 17 15 12 14 15 16 13 10 8 8 6 11 4 6 5 10 13 11 11 6 8 8 3 4 3 3 6 6 5 5 4 4 4 5
13 13 14 14 11 12 9 16 20 17 14 18 13 9 8 9 19 17 14 16 15 13 13 10 9 8 8 7 6 7 8 8 9 11 9 8 7 4 5 3 3 4 3 6 6 6 8 4 5
12 10 7 10 16 16 10 17 13 15 18 20 17 11 8 9 15 16 16 15 14 14 14 12 11 9 8 7 6 8 10 7 7 12 9 7 7 5 2 2 4 2 3 3 4 2 3 4 4
3 6 11 9 4 6 9 16 13 17 18 18 18 13 11 9 7 16 17 16 15 15 15 13 10 10 9 7 7 9 10 8 8 9 11 8 8 5 3 4 4 1 2 2 2 3 2 2 4
3 5 4 9 9 7 12 14 11 16 14 12 13 18 15 13 11 9 16 15 15 14 14 12 9 9 9 6 5 4 4 6 10 7 9 10 9 6 2 4 4 2 2 4 3 3 2 2 3
8 10 13 14 14 14 12 16 16 13 13 11 9 8 10 9 13 11 15 14 13 15 15 12 10 8 9 4 5 4 4 3 3 6 9 7 6 7 3 2 3 3 3 2 2 2 2 3 4
11 14 15 14 14 11 14 18 19 16 14 11 10 10 11 11 17 13 11 12 13 15 15 13 10 10 8 5 4 3 4 3 4 6 7 7 6 6 4 2 3 4 3 3 4 4 3 2 4
9 10 12 16 14 12 12 15 17 22 20 15 13 10 11 9 17 15 13 11 12 15 16 14 12 12 8 8 5 4 4 3 3 2 2 3 4 8 3 4 4 4 2 3 2 3 4 2 3
10 7 12 13 9 4 1 5 9 14 20 19 15 11 10 9 13 17 15 12 12 13 13 13 13 13 9 8 7 7 4 4 3 4 3 4 5 7 6 5 4 3 2 3 2 3 1 3 3
6 8 11 13 11 9 14 6 7 8 9 14 11 10 10 8 8 18 17 16 10 13 13 10 12 11 9 10 8 6 5 4 4 4 6 5 4 6 7 5 4 4 2 3 4 3 4 2 2
6 7 12 10 5 6 15 8 5 5 2 2 12 12 11 10 8 17 16 14 10 11 12 8 12 11 10 9 8 8 8 7 5 4 4 3 3 2 5 5 4 4 4 3 3 3 4 3 3
5 3 2 2 3 4 3 6 10 16 10 4 6 8 10 10 8 15 17 16 14 15 13 10 13 13 12 9 7 7 9 8 7 6 4 4 3 2 4 4 4 2 5 5 4 3 2 3 2
3 3 3 4 1 3 4 4 5 4 7 7 7 8 7 9 8 10 14 14 16 17 14 13 13 11 11 10 8 6 7 4 4 5 4 4 4 4 6 4 6 6 6 5 3 1 2 2 1
3 4 4 5 5 2 4 5 6 6 6 8 9 8 7 8 8 10 9 10 11 12 13 13 11 10 10 8 7 7 7 6 6 6 5 4 5 4 6 6 5 5 5 4 3 2 1 2 0
6 5 3 2 3 4 3 1 1 8 8 5 3 4 5 9 9 7 9 8 6 8 8 9 10 10 8 8 7 7 7 7 6 6 6 6 6 5 6 5 4 4 5 4 3 0 1 1 2
4 3 4 4 4 2 4 0 3 5 6 7 6 6 7 9 7 8 7 7 7 7 7 8 9 9 9 8 7 8 7 7 6 6 6 6 6 6 5 5 4 4 3 3 2 2 3 2 4
3 5 4 3 3 1 2 5 1 4 6 5 6 6 6 8 8 7 7 7 7 7 7 8 8 8 7 7 8 7 7 7 6 6 6 6 6 5 6 5 4 3 3 2 2 3 3 3 5
Wind_Direction
318 311 297 301 242 215 245 239 252 255 25 70 334 74 341 52 35 146 146 112 119 126 129 129 127 116 126 125 122 117 113 110 103 97 91 85 81 78 73 69 66 62 59 55 52 48 44 40 37
304 301 278 267 214 234 243 234 256 187 118 81 46 56 332 93 84 114 73 121 119 124 135 128 116 125 132 127 124 120 116 110 104 97 93 88 84 80 75 72 67 61 59 56 52 49 44 42 40
283 270 265 204 231 224 237 252 236 164 117 129 107 343 18 87 106 140 104 121 123 130 125 128 124 136 133 129 126 121 117 112 105 100 95 91 87 82 76 71 65 59 58 56 51 49 46 42 38
305 175 278 248 233 224 246 259 270 102 108 151 165 141 73 337 144 136 125 124 112 118 121 122 137 136 133 131 127 124 120 114 108 103 99 94 89 84 77 74 68 62 57 54 51 47 44 39 34
225 267 243 229 243 257 245 237 265 252 150 171 218 155 94 60 101 134 126 125 129 123 124 131 138 135 133 131 128 126 123 119 112 108 103 96 91 86 82 75 69 64 58 51 49 46 43 39 33
288 232 245 236 250 242 255 266 272 242 185 188 192 139 111 119 125 138 132 129 127 128 131 137 136 135 133 131 130 128 126 120 114 110 105 97 93 90 83 76 71 64 58 53 49 45 42 37 32
252 281 247 262 267 263 236 247 264 262 243 207 139 208 126 146 143 131 131 134 133 130 129 132 131 130 130 130 131 128 125 120 117 114 107 102 96 89 81 75 70 65 59 51 46 41 38 38 32
285 263 262 261 263 273 288 291 237 243 238 317 153 172 162 163 140 126 125 139 142 132 134 141 133 134 131 130 125 124 125 123 121 119 120 119 111 97 81 76 67 64 59 51 44 38 32 23 21
296 261 266 255 258 279 275 293 301 356 187 356 99 59 119 137 138 131 133 127 137 139 143 139 152 149 138 125 119 122 126 130 131 134 151 161 143 115 90 85 77 71 63 54 42 28 357 340 271
208 243 266 284 293 297 323 329 333 7 312 277 90 80 113 135 147 154 159 154 148 152 143 145 158 139 138 139 149 145 148 154 161 157 181 185 86 92 119 117 118 108 86 360 337 334 348 26 18
238 254 277 290 298 352 340 321 312 352 310 321 341 144 142 148 156 164 162 158 164 160 135 130 134 128 129 151 175 156 175 155 157 146 128 118 139 159 177 154 180 217 33 37 18 21 24 8 8
244 266 281 290 298 319 307 313 318 315 287 330 4 126 144 161 171 174 167 165 172 168 143 132 140 125 126 153 145 152 137 142 130 150 115 125 96 52 60 88 58 58 20 20 20 13 13 3 12
307 266 265 285 293 302 302 288 282 288 297 318 1 14 163 172 184 186 173 174 178 163 145 143 144 143 124 153 150 142 131 142 128 123 130 112 118 119 106 73 63 58 22 23 11 21 2 351 357
297 307 296 291 291 270 263 275 281 257 270 273 274 228 212 174 180 190 182 190 176 159 150 147 150 149 132 170 134 133 155 133 142 132 130 120 123 124 102 105 59 56 49 360 352 3 352 338 4
299 281 280 271 245 243 256 256 250 263 265 273 274 211 221 202 172 185 194 195 173 153 152 158 160 145 148 147 150 130 121 127 129 129 132 124 133 132 122 92 78 64 22 359 4 17 1 6 4
281 286 277 270 263 224 215 259 266 239 239 243 254 266 202 222 179 181 181 204 161 150 160 162 166 150 157 146 149 138 136 142 129 134 141 142 130 133 110 117 92 32 12 22 7 17 10 355 15
280 282 288 303 254 311 231 257 258 252 255 232 235 235 245 187 206 174 180 201 162 161 158 163 158 156 154 143 149 139 159 142 136 140 147 163 147 159 153 104 113 45 10 26 18 5 45 17 352
299 317 308 308 311 327 303 283 258 276 285 240 227 221 238 182 184 174 176 192 167 157 155 156 153 155 142 135 128 119 134 143 149 154 150 158 162 158 139 125 110 7 15 39 19 18 336 70 359
244 273 283 286 290 305 279 282 284 271 263 264 271 224 243 212 175 176 180 183 170 151 150 154 154 153 136 133 140 137 160 140 125 134 141 159 150 161 154 112 114 74 76 54 21 355 8 29 352
276 278 281 284 278 269 274 279 281 263 259 231 231 243 243 246 161 160 170 173 181 155 149 152 162 143 136 131 150 141 151 152 156 145 150 176 166 143 161 117 92 77 31 68 47 32 348 39 40
281 282 288 273 277 278 263 272 267 258 254 247 226 222 240 230 161 161 173 181 170 156 151 159 159 155 148 152 132 101 87 72 81 135 150 164 169 139 131 110 101 100 55 89 76 42 54 10 8
279 280 304 302 297 257 351 290 293 276 226 226 217 214 229 238 157 161 170 185 175 154 144 167 163 157 152 134 131 142 144 147 182 165 164 138 120 131 132 109 102 103 90 80 92 70 51 62 25
260 7 311 311 293 289 274 270 269 301 213 209 209 207 217 217 162 165 168 181 162 148 155 177 161 148 146 147 151 158 151 150 122 119 124 136 116 137 132 134 127 117 98 87 75 58 47 60 72
331 306 276 267 262 239 244 214 272 260 299 231 192 194 186 194 197 162 163 163 140 141 155 170 158 147 148 151 155 157 140 134 125 137 140 154 136 137 129 128 137 120 102 106 93 76 65 56 58
61 275 263 203 219 234 14 188 248 292 319 61 355 332 182 172 167 149 161 159 154 157 165 170 168 159 155 141 152 152 141 141 154 144 154 153 132 142 141 139 127 112 99 87 84 82 82 75 71
207 256 299 294 286 322 6 223 254 104 57 26 4 345 159 132 139 150 149 160 162 166 167 167 170 158 145 146 144 146 128 132 120 131 142 143 158 153 136 130 122 111 121 120 112 113 108 93 95
165 222 229 297 227 316 196 258 325 85 63 31 18 6 33 107 114 110 109 124 138 149 166 168 164 139 143 136 141 128 118 122 122 119 113 112 104 114 116 122 115 121 120 123 119 93 107 117 159
211 330 325 257 307 309 308 336 43 8 1 28 356 321 46 79 99 107 121 129 133 159 154 153 135 135 140 131 123 128 132 122 124 117 116 121 112 107 124 127 132 129 128 129 108 110 204 158 292
208 256 234 263 221 257 320 253 333 336 3 337 50 82 88 87 97 94 112 122 128 121 133 118 126 127 123 124 122 115 119 115 118 120 127 120 123 130 131 132 127 134 139 144 164 246 238 252 275
335 267 254 268 337 351 203 279 38 7 7 352 68 100 105 99 95 96 98 101 114 106 100 102 108 111 117 115 118 121 117 123 124 123 123 130 130 124 130 128 131 134 148 193 220 254 293 284 291